Stampede Pass, WA

7:13 AM PDT on May 26, 2017 (GMT -0700)
Stampede Pass

Weather History for KSMP - October, 2011

Change the Weather History Date:

Saturday, October 1, 2011

  Actual Average Record
Temperature  
Mean Temperature 42 °F -  
Max Temperature 46 °F 54 °F 72 °F (2003)
Min Temperature 39 °F 40 °F 32 °F (2002)
Degree Days  
Heating Degree Days 22    
Moisture  
Dew Point 44 °F    
Average Humidity 99    
Maximum Humidity 100    
Minimum Humidity 93    
Precipitation  
Precipitation 0.13 in - - ()
Sea Level Pressure  
Sea Level Pressure 29.92 in    
Wind  
Wind Speed 4 mph (WSW)    
Max Wind Speed 8 mph    
Max Gust Speed -    
Visibility 1 miles    
Events Fog , Rain    
Averages and records for this station are not official NWS values.
T = Trace of Precipitation, MM = Missing Value Source: NWS Daily Summary

Daily Weather History Graph

Daily Weather History Graph

Search for Another Location

Airport or City:

Trip Planner

Search our weather history database for the weather conditions in past years. The results will help you decide how hot, cold, wet, or windy it might be!

Date:

Astronomy

Oct. 01, 2011 Rise Set
Actual Time 7:04 AM PDT 6:45 PM PDT
Civil Twilight 6:33 AM PDT 7:15 PM PDT
Nautical Twilight 5:57 AM PDT 7:51 PM PDT
Astronomical Twilight 5:21 AM PDT 8:27 PM PDT
Moon 12:39 PM PDT (10/1) 9:23 PM PDT (10/1)
Length of Visible Light 12h 42m
Length of Day
11h 41m
Waxing Crescent, 25% of the Moon is Illuminated
Oct 1
Waxing Crescent
Oct 3
First Quarter
Oct 11
Full
Oct 19
Last Quarter
Oct 26
New

Hourly Weather History & Observations

Time (PDT) Temp. Windchill Dew Point Humidity Pressure Visibility Wind Dir Wind Speed Gust Speed Precip Events Conditions
12:52 AM 46.4 °F 44.3 °F 46.4 °F 100% 29.88 in 0.2 mi WSW 4.6 mph - N/A Fog Fog
12:56 AM 46.0 °F 43.9 °F 46.0 °F 100% 29.85 in 0.2 mi SW 4.6 mph - N/A Fog Fog
1:09 AM 46.4 °F 44.3 °F 46.4 °F 100% 29.88 in 0.2 mi WSW 4.6 mph - N/A Fog Fog
1:25 AM 46.4 °F 43.5 °F 46.4 °F 100% 29.88 in 1.0 mi SW 5.8 mph - N/A   Mostly Cloudy
1:39 AM 46.4 °F 44.3 °F 46.4 °F 100% 29.87 in 0.5 mi SW 4.6 mph - 0.01 in Fog , Rain Light Rain
1:45 AM 46.4 °F 43.5 °F 44.6 °F 93% 29.88 in 1.5 mi WSW 5.8 mph - 0.01 in Rain Light Rain
1:47 AM 46.4 °F 43.5 °F 44.6 °F 93% 29.88 in 5.0 mi SW 5.8 mph - 0.01 in Rain Light Rain
1:56 AM 46.0 °F 43.1 °F 45.0 °F 96% 29.84 in 8.0 mi WSW 5.8 mph - 0.01 in   Overcast
2:10 AM 46.4 °F 42.9 °F 46.4 °F 100% 29.87 in 1.5 mi WSW 6.9 mph - 0.00 in Rain Light Rain
2:13 AM 46.4 °F 43.5 °F 46.4 °F 100% 29.86 in 0.8 mi WSW 5.8 mph - 0.00 in Rain Light Rain
2:21 AM 46.4 °F 44.3 °F 46.4 °F 100% 29.87 in 2.0 mi SW 4.6 mph - 0.01 in Rain Light Rain
2:29 AM 46.4 °F 43.5 °F 46.4 °F 100% 29.86 in 9.0 mi WSW 5.8 mph - 0.01 in   Overcast
2:40 AM 46.4 °F 42.9 °F 46.4 °F 100% 29.87 in 1.2 mi SW 6.9 mph - 0.01 in   Overcast
2:45 AM 46.4 °F 42.4 °F 46.4 °F 100% 29.87 in 0.2 mi WSW 8.1 mph - 0.01 in Fog Fog
2:56 AM 46.0 °F 41.9 °F 46.0 °F 100% 29.82 in 0.2 mi WSW 8.1 mph - 0.01 in Fog Fog
3:13 AM 46.4 °F 42.9 °F 46.4 °F 100% 29.86 in 0.5 mi WSW 6.9 mph - N/A Fog Fog
3:19 AM 46.4 °F 42.4 °F 46.4 °F 100% 29.87 in 0.2 mi WSW 8.1 mph - N/A Fog Fog
3:43 AM 46.4 °F 42.4 °F 46.4 °F 100% 29.87 in 0.2 mi WSW 8.1 mph - N/A Fog Fog
3:56 AM 46.0 °F 42.5 °F 46.0 °F 100% 29.82 in 0.2 mi WSW 6.9 mph - N/A Fog Fog
4:56 AM 46.0 °F 43.1 °F 46.0 °F 100% 29.83 in 0.2 mi WSW 5.8 mph - N/A Fog Fog
5:56 AM 45.0 °F 41.8 °F 45.0 °F 100% 29.91 in 0.2 mi SW 5.8 mph - 0.02 in Fog Fog
6:56 AM 46.0 °F 43.9 °F 46.0 °F 100% 29.88 in 0.2 mi Variable 4.6 mph - 0.00 in Fog Fog
7:11 AM 44.6 °F - 44.6 °F 100% 29.89 in 0.2 mi Calm Calm - N/A Fog Fog
7:21 AM 44.6 °F - 44.6 °F 100% 29.89 in 0.2 mi Calm Calm - 0.01 in Fog Fog
7:32 AM 46.4 °F 45.2 °F 44.6 °F 93% 29.90 in 0.5 mi Variable 3.5 mph - 0.01 in Fog Fog
7:39 AM 46.4 °F 45.2 °F 44.6 °F 93% 29.89 in 0.2 mi Variable 3.5 mph - 0.01 in Fog Fog
7:56 AM 46.0 °F 44.8 °F 45.0 °F 96% 29.88 in 0.2 mi Variable 3.5 mph - 0.01 in Fog Fog
8:56 AM 46.0 °F 43.9 °F 45.0 °F 96% 29.89 in 0.2 mi Variable 4.6 mph - 0.01 in Fog , Rain Light Rain
9:56 AM 46.0 °F 44.8 °F 46.0 °F 100% 29.89 in 0.2 mi Variable 3.5 mph - 0.01 in Fog Fog
10:56 AM 46.0 °F - 46.0 °F 100% 29.89 in 0.2 mi Calm Calm - N/A Fog Fog
11:56 AM 46.0 °F - 46.0 °F 100% 29.91 in 0.2 mi Calm Calm - N/A Fog Fog
12:56 PM 45.0 °F 42.6 °F 45.0 °F 100% 29.92 in 0.2 mi WSW 4.6 mph - N/A Fog Fog
1:56 PM 45.0 °F 43.5 °F 45.0 °F 100% 29.93 in 0.2 mi Variable 3.5 mph - 0.02 in Fog , Rain Light Rain
2:56 PM 45.0 °F 42.6 °F 45.0 °F 100% 29.94 in 0.2 mi Variable 4.6 mph - 0.04 in Fog Fog
3:56 PM 44.1 °F 40.8 °F 44.1 °F 100% 29.96 in 0.2 mi Variable 5.8 mph - N/A Fog Fog
4:56 PM 43.0 °F 41.3 °F 43.0 °F 100% 29.97 in 0.2 mi Variable 3.5 mph - N/A Fog Fog
5:07 PM 42.8 °F 41.1 °F 42.8 °F 100% 29.97 in 0.2 mi Variable 3.5 mph - N/A Fog Fog
5:35 PM 44.6 °F - 44.6 °F 100% 29.97 in 0.2 mi Calm Calm - N/A Fog Fog
5:56 PM 43.0 °F - 43.0 °F 100% 29.99 in 0.2 mi Calm Calm - N/A Fog Fog
6:56 PM 43.0 °F 40.3 °F 43.0 °F 100% 29.98 in 0.2 mi Variable 4.6 mph - N/A Fog Fog
7:56 PM 42.1 °F - 42.1 °F 100% 29.99 in 0.2 mi Calm Calm - N/A Fog Fog
8:03 PM 42.8 °F - 42.8 °F 100% 29.98 in 0.5 mi Calm Calm - N/A Fog Fog
8:15 PM 42.8 °F - 42.8 °F 100% 29.97 in 0.2 mi Calm Calm - N/A Fog Fog
8:20 PM 42.8 °F - 42.8 °F 100% 29.97 in 0.5 mi Calm Calm - N/A Fog Fog
8:36 PM 42.8 °F - 42.8 °F 100% 29.97 in 0.2 mi Calm Calm - N/A Fog Fog
8:44 PM 42.8 °F - 42.8 °F 100% 29.97 in 0.2 mi Calm Calm - N/A Fog Fog
8:56 PM 42.1 °F - 42.1 °F 100% 29.99 in 0.2 mi Calm Calm - N/A Fog Fog
9:07 PM 42.8 °F 40.1 °F 42.8 °F 100% 29.97 in 0.2 mi West 4.6 mph - N/A Fog Fog
9:36 PM 42.8 °F - 42.8 °F 100% 29.98 in 0.2 mi Calm Calm - N/A Fog Fog
9:46 PM 42.8 °F 41.1 °F 42.8 °F 100% 29.98 in 0.5 mi West 3.5 mph - N/A Fog Fog
9:49 PM 42.8 °F - 41.0 °F 93% 29.98 in 1.0 mi Calm Calm - N/A   Overcast
9:53 PM 41.0 °F - 41.0 °F 100% 29.98 in 1.5 mi Calm Calm - N/A   Overcast
9:56 PM 41.0 °F - 41.0 °F 100% 29.99 in 2.0 mi Calm Calm - N/A   Overcast
10:07 PM 41.0 °F - 39.2 °F 93% 29.98 in 8.0 mi Calm Calm - N/A   Overcast
10:56 PM 39.9 °F 37.8 °F 39.0 °F 97% 29.99 in 10.0 mi WNW 3.5 mph - N/A   Scattered Clouds
11:12 PM 41.0 °F 39.0 °F 39.2 °F 93% 29.97 in 10.0 mi West 3.5 mph - N/A   Mostly Cloudy
11:19 PM 41.0 °F 39.0 °F 39.2 °F 93% 29.97 in 10.0 mi West 3.5 mph - N/A   Scattered Clouds
11:36 PM 39.2 °F - 39.2 °F 100% 29.97 in 2.0 mi Calm Calm - N/A   Scattered Clouds
11:39 PM 39.2 °F - 39.2 °F 100% 29.97 in 0.8 mi Calm Calm - N/A   Scattered Clouds
11:42 PM 39.2 °F - 39.2 °F 100% 29.97 in 0.2 mi Calm Calm - N/A Fog Fog
11:53 PM 39.2 °F 37.0 °F 39.2 °F 100% 29.97 in 0.2 mi WSW 3.5 mph - N/A Fog Fog
11:56 PM 39.9 °F - 39.9 °F 100% 29.99 in 0.2 mi Calm Calm - N/A Fog Fog